Wind_Speed
34 34 34 34 34 34 35 35 35 35 35 35 36 36 36 36 36 35 35 34 34 33 33 33 33 33 33 33 33 32 32 32 32 32 32 32 31 31 31 31 30 30 30
37 37 37 37 37 37 37 37 37 37 38 38 38 38 39 39 39 38 37 37 36 36 35 36 35 35 35 35 35 34 34 34 34 34 34 34 33 33 33 33 32 32 31
40 40 39 39 39 39 39 40 40 40 40 41 41 41 41 41 41 41 40 40 39 39 38 38 37 37 37 37 37 37 37 37 37 36 36 36 35 35 35 34 34 34 33
41 41 42 41 41 42 42 42 42 42 42 42 43 43 43 43 43 43 43 43 43 42 41 41 40 40 39 39 39 39 39 39 39 39 38 37 37 37 37 36 36 35 35
42 42 43 44 44 44 44 44 44 45 44 44 44 44 44 45 45 45 45 45 45 45 45 44 44 43 42 42 41 42 41 42 42 42 41 40 39 39 39 38 38 37 37
43 44 45 46 46 45 45 45 46 46 46 46 46 46 46 46 46 46 46 47 48 48 48 47 47 46 46 45 45 44 44 45 44 44 44 43 42 42 42 41 40 40 39
44 44 45 45 46 46 46 46 47 48 48 48 49 49 49 49 48 49 49 49 50 50 50 50 50 49 49 48 47 47 47 47 47 47 46 46 45 45 44 44 43 43 42
45 45 45 45 45 46 47 47 48 49 50 50 51 51 51 51 51 52 52 52 52 52 52 52 52 52 52 51 51 50 50 49 49 49 49 48 47 47 47 46 45 45 44
44 44 44 45 46 46 47 48 48 48 49 50 52 53 54 54 54 53 54 54 54 54 54 54 54 54 54 54 53 53 53 52 52 52 51 50 50 49 49 48 48 47 46
44 44 45 46 47 48 48 49 50 50 51 52 52 54 55 56 56 56 57 57 57 57 57 57 57 56 56 56 55 55 54 54 54 54 53 53 52 52 51 51 51 50 49
44 45 46 47 48 49 50 50 52 52 54 54 55 55 56 57 58 59 59 59 59 59 59 59 58 58 58 58 58 57 57 57 57 56 56 55 54 54 54 53 53 52 52
45 46 47 49 50 51 51 52 53 54 54 55 56 57 58 58 59 61 61 61 61 61 60 60 60 60 60 59 59 58 58 58 58 58 57 57 56 56 57 55 55 55 54
46 48 49 50 50 51 52 53 54 55 56 56 57 58 59 59 59 60 61 61 61 60 61 60 60 60 60 60 60 59 59 59 60 59 59 59 58 58 58 57 57 57 55
48 48 49 50 51 52 53 54 55 56 57 58 58 59 59 59 60 60 61 61 61 60 59 58 59 59 60 60 60 59 59 60 61 61 60 60 59 59 59 58 57 57 55
49 49 50 51 52 53 54 55 55 56 57 58 59 59 59 59 59 59 60 60 60 60 59 57 57 57 58 59 59 59 59 59 60 60 60 60 59 59 59 58 57 57 56
50 50 51 51 52 54 55 55 56 57 58 58 58 59 58 58 58 58 58 58 58 59 58 55 56 56 56 56 58 59 60 60 59 59 60 60 59 58 58 58 57 57 56
50 51 51 52 52 53 55 55 56 57 57 57 57 56 56 56 57 57 57 57 57 58 58 55 56 56 56 57 57 58 59 60 58 57 58 58 58 58 58 57 57 57 56
50 51 51 52 52 53 55 55 55 55 55 55 55 55 55 56 56 56 56 57 57 57 58 57 56 56 56 57 57 57 58 58 56 56 56 57 56 56 56 56 56 56 55
50 51 52 52 53 54 54 55 55 55 55 55 54 54 54 55 55 55 55 56 57 57 58 57 55 55 55 55 55 55 56 56 55 55 55 55 55 55 55 55 55 55 55
50 51 52 53 53 54 54 54 54 54 54 54 54 54 54 54 54 55 56 56 57 57 57 56 55 54 54 54 55 54 54 53 54 54 54 55 54 53 53 53 54 54 54
51 52 52 53 54 54 53 53 53 52 52 53 53 53 54 54 54 55 55 55 56 56 55 55 54 53 54 53 53 53 52 52 52 52 52 52 51 51 51 52 53 53 53
51 51 52 53 52 51 51 52 52 52 51 51 52 52 53 53 53 54 54 54 53 53 53 53 52 52 52 51 51 52 51 51 51 50 51 49 49 48 49 50 51 51 51
51 51 51 51 50 49 50 50 51 51 50 51 51 51 51 51 52 52 52 52 52 52 53 52 51 50 50 49 49 49 49 49 49 49 49 47 45 44 45 45 46 46 47
49 49 49 48 48 48 49 49 50 51 51 50 51 51 51 51 51 51 51 51 50 50 50 50 49 47 47 47 47 46 47 47 46 45 44 43 42 42 41 42 43 43 44
48 48 47 47 48 48 48 49 50 50 49 50 51 51 51 50 50 50 50 50 49 48 47 47 46 45 43 43 43 42 42 42 41 40 40 41 39 39 39 39 39 38 39
47 47 46 46 46 47 47 48 49 48 48 48 49 50 49 48 48 48 48 48 46 45 44 44 43 41 41 40 39 39 39 38 37 37 37 37 37 37 36 35 35 35 36
Wind_Direction
263 264 264 264 265 265 266 266 267 266 267 268 269 269 269 270 271 272 272 272 272 272 272 273 272 273 273 274 274 275 275 275 276 277 278 278 278 278 278 279 281 282 282
264 264 264 264 265 266 266 266 267 267 268 268 269 269 269 269 270 271 271 271 271 272 272 272 271 271 272 273 273 274 274 275 275 276 277 277 276 277 277 278 279 280 281
265 264 264 265 265 266 266 267 267 268 268 268 269 269 269 269 269 270 270 271 271 272 272 272 272 271 271 271 272 272 273 274 275 275 276 276 277 277 277 277 277 278 280
267 265 265 265 265 266 267 267 268 268 268 269 269 270 270 269 269 270 270 270 271 272 272 272 272 272 272 271 271 272 272 273 275 275 276 276 277 278 277 276 276 277 278
268 267 266 266 266 267 267 268 269 269 269 269 270 270 270 270 270 270 270 270 270 271 272 272 271 271 271 271 272 272 271 272 273 275 275 275 275 276 275 275 276 276 277
268 268 267 266 266 267 268 268 269 269 269 269 270 270 270 270 271 271 271 271 271 271 271 271 271 271 271 271 271 271 271 271 272 273 274 274 274 274 275 276 276 276 276
269 269 268 267 267 267 268 269 269 270 270 270 270 270 271 272 271 272 272 272 272 271 271 271 271 271 271 270 270 271 271 271 271 271 272 273 273 273 274 274 275 276 276
269 270 268 267 268 268 269 270 271 271 271 270 271 271 271 272 271 272 272 272 272 271 270 270 271 271 271 270 270 270 270 270 270 271 271 272 272 272 272 273 274 275 275
270 269 268 269 269 270 271 272 273 273 272 272 272 273 272 272 271 271 271 272 272 271 271 270 270 270 270 269 269 269 269 269 269 270 270 271 271 271 271 272 273 273 273
270 269 270 270 270 272 273 273 273 274 274 274 275 275 275 274 274 272 271 271 271 271 271 270 270 270 269 269 268 268 269 268 268 268 269 270 270 270 270 271 272 272 272
271 271 272 272 272 273 274 274 274 275 275 276 276 276 276 276 276 275 273 272 271 271 270 270 270 270 270 269 268 268 268 268 268 267 267 268 268 269 270 270 271 271 271
272 273 273 273 274 274 275 275 276 276 277 277 277 277 278 278 277 276 275 274 272 271 270 270 270 269 269 269 268 268 268 267 267 267 267 267 267 268 269 270 270 270 270
273 274 275 275 275 275 275 276 277 278 279 279 279 279 279 279 278 277 276 275 273 272 271 270 269 269 269 269 268 267 267 267 267 267 267 267 268 268 268 268 269 268 269
274 275 276 277 277 276 277 277 279 280 279 280 279 280 280 279 278 278 277 275 274 273 271 270 269 269 268 268 268 267 267 267 267 267 267 267 267 267 267 267 267 266 267
275 276 276 277 278 277 278 280 281 281 281 281 280 280 280 279 278 277 277 275 275 274 272 270 269 269 269 269 268 268 268 268 268 267 267 266 266 266 266 266 266 266 265
276 276 277 278 279 279 280 281 282 282 281 281 280 280 280 279 278 277 277 276 275 274 272 271 269 269 269 269 269 268 268 268 268 268 267 267 266 265 265 265 265 265 265
277 277 279 280 281 281 281 281 282 282 283 282 281 281 280 278 278 278 276 276 275 275 274 272 271 270 269 269 269 269 269 268 268 268 267 266 265 264 264 264 264 264 264
277 278 280 281 282 282 282 282 282 282 282 282 282 282 280 278 278 277 276 276 276 276 275 274 272 271 269 269 269 268 268 268 268 267 266 265 264 264 264 264 264 264 264
278 280 281 281 282 282 283 283 283 282 282 281 281 281 281 279 279 277 277 277 277 276 276 275 273 272 271 270 268 268 267 267 267 267 266 265 265 265 265 265 264 264 264
278 279 281 282 282 282 283 283 283 283 283 282 281 281 281 280 279 279 278 278 278 277 277 275 273 271 271 270 269 268 267 267 267 267 266 266 266 265 265 265 264 264 265
279 281 282 282 282 283 283 283 283 283 283 283 282 282 281 281 281 280 279 279 279 278 277 276 274 272 271 270 269 268 268 267 267 267 266 265 266 265 265 265 265 265 264
280 281 282 282 283 283 283 284 284 284 284 283 283 282 282 281 281 280 280 279 279 278 277 276 274 273 271 270 267 267 266 266 266 267 267 266 266 265 265 265 264 264 264
280 281 282 283 283 283 283 284 284 285 285 285 284 283 282 282 281 281 281 280 278 278 277 276 274 274 270 269 267 267 266 266 266 266 266 266 265 264 264 264 265 265 265
281 282 282 283 283 283 283 284 285 286 286 286 285 284 284 283 282 281 281 280 278 278 277 276 274 273 270 267 267 267 266 265 265 265 264 263 264 264 263 264 266 266 264
281 282 282 282 283 283 284 286 287 287 287 286 286 286 285 284 283 281 280 279 278 277 275 274 273 272 268 266 265 265 265 265 264 262 262 263 262 262 263 263 263 263 262
281 281 282 282 283 284 285 287 288 288 288 288 287 286 285 284 282 281 280 279 278 276 273 272 270 268 265 264 264 265 265 265 264 262 262 261 261 262 262 260 260 259 259
Height
5811 5811 5812 5812 5812 5812 5813 5813 5813 5813 5813 5813 5813 5812 5812 5812 5812 5811 5811 5811 5811 5810 5810 5809 5808 5808 5807 5806 5806 5805 5804 5803 5803 5801 5801 5800 5799 5798 5797 5797 5796 5795 5793
5803 5803 5804 5804 5804 5804 5805 5805 5805 5805 5805 5805 5804 5804 5804 5804 5804 5803 5803 5803 5803 5802 5802 5801 5801 5800 5800 5799 5798 5797 5797 5796 5795 5794 5793 5792 5791 5790 5790 5789 5789 5788 5787
5794 5794 5795 5795 5796 5796 5796 5796 5796 5796 5796 5796 5796 5795 5795 5795 5795 5795 5795 5794 5794 5794 5794 5793 5793 5792 5792 5791 5790 5790 5789 5788 5787 5786 5785 5784 5783 5782 5782 5781 5781 5780 5779
5784 5784 5785 5786 5786 5786 5786 5786 5786 5786 5786 5786 5786 5786 5786 5786 5786 5785 5785 5785 5785 5785 5785 5784 5784 5783 5783 5782 5782 5781 5780 5780 5779 5778 5777 5776 5775 5775 5774 5773 5772 5772 5771
5774 5774 5775 5775 5776 5775 5776 5776 5776 5776 5776 5776 5776 5776 5776 5775 5775 5775 5775 5774 5774 5774 5774 5774 5774 5773 5773 5773 5772 5772 5771 5770 5769 5769 5768 5768 5767 5766 5765 5765 5764 5763 5763
5764 5764 5764 5764 5765 5765 5765 5765 5765 5765 5765 5765 5765 5765 5765 5765 5764 5764 5764 5764 5763 5763 5763 5763 5763 5763 5762 5762 5762 5761 5761 5760 5760 5759 5759 5758 5758 5757 5756 5755 5755 5754 5754
5753 5753 5753 5753 5753 5754 5754 5754 5754 5754 5753 5753 5753 5753 5754 5753 5753 5753 5753 5752 5752 5751 5751 5751 5750 5751 5751 5751 5750 5750 5750 5749 5749 5749 5748 5748 5747 5747 5746 5746 5746 5745 5744
5742 5742 5741 5742 5742 5743 5743 5743 5742 5742 5741 5741 5741 5740 5741 5742 5741 5741 5740 5740 5739 5739 5739 5738 5738 5738 5738 5738 5738 5738 5738 5738 5737 5737 5736 5736 5736 5736 5735 5735 5735 5734 5734
5731 5730 5730 5731 5731 5731 5731 5731 5730 5730 5729 5729 5728 5727 5727 5728 5728 5728 5727 5726 5726 5726 5725 5725 5724 5724 5724 5724 5724 5725 5725 5725 5725 5724 5724 5724 5724 5724 5724 5723 5724 5723 5723
5720 5720 5719 5719 5720 5719 5719 5719 5718 5717 5717 5716 5715 5714 5713 5713 5712 5713 5714 5713 5712 5711 5711 5710 5710 5709 5709 5709 5710 5710 5710 5711 5711 5711 5711 5711 5711 5711 5711 5711 5711 5711 5711
5710 5709 5709 5708 5708 5708 5707 5706 5705 5704 5703 5702 5701 5700 5698 5697 5696 5696 5698 5698 5697 5696 5695 5694 5694 5694 5693 5693 5694 5694 5695 5695 5696 5696 5697 5697 5697 5698 5698 5698 5698 5698 5698
5699 5699 5698 5697 5696 5695 5694 5693 5692 5691 5689 5688 5687 5685 5683 5682 5681 5680 5680 5680 5680 5681 5679 5679 5678 5677 5677 5677 5677 5678 5678 5679 5680 5681 5681 5682 5683 5683 5683 5684 5683 5684 5683
5688 5687 5686 5685 5684 5682 5681 5680 5679 5677 5675 5674 5672 5670 5668 5666 5664 5663 5662 5662 5662 5663 5663 5663 5662 5661 5660 5660 5660 5660 5661 5662 5663 5664 5665 5665 5666 5667 5668 5669 5669 5669 5669
5677 5676 5674 5673 5671 5670 5668 5666 5665 5663 5661 5659 5657 5654 5652 5650 5648 5646 5645 5644 5644 5646 5647 5647 5645 5644 5644 5643 5644 5643 5644 5645 5645 5646 5647 5649 5650 5651 5651 5652 5653 5653 5654
5664 5663 5662 5660 5658 5656 5654 5652 5650 5648 5645 5643 5641 5638 5636 5634 5632 5630 5629 5627 5627 5627 5631 5632 5630 5629 5627 5627 5627 5626 5627 5628 5628 5629 5630 5631 5632 5633 5635 5636 5637 5638 5639
5651 5650 5649 5647 5645 5643 5640 5638 5635 5633 5630 5627 5625 5622 5620 5617 5616 5615 5613 5612 5610 5610 5612 5615 5614 5613 5612 5611 5610 5610 5610 5611 5612 5612 5613 5614 5615 5616 5618 5619 5620 5621 5623
5638 5637 5635 5633 5631 5629 5626 5623 5621 5618 5615 5612 5609 5607 5605 5602 5601 5599 5597 5596 5595 5594 5594 5598 5597 5596 5596 5595 5594 5594 5594 5594 5595 5595 5595 5596 5597 5599 5601 5602 5604 5605 5607
5626 5624 5622 5620 5618 5615 5612 5609 5606 5603 5600 5598 5595 5592 5590 5587 5586 5584 5582 5581 5580 5579 5578 5580 5581 5579 5579 5578 5577 5577 5577 5577 5578 5579 5579 5580 5581 5582 5584 5586 5587 5589 5590
5613 5611 5609 5606 5604 5601 5598 5594 5591 5589 5586 5583 5580 5578 5575 5573 5571 5569 5567 5566 5565 5563 5562 5562 5563 5563 5562 5561 5561 5561 5561 5561 5562 5562 5563 5564 5565 5566 5568 5570 5571 5573 5574
5600 5598 5595 5593 5590 5587 5583 5580 5577 5574 5571 5569 5566 5563 5560 5558 5556 5554 5552 5550 5549 5547 5546 5545 5546 5546 5546 5545 5544 5545 5546 5546 5547 5547 5547 5548 5549 5550 5552 5554 5555 5557 5558
5587 5584 5582 5579 5576 5573 5569 5566 5563 5560 5557 5554 5552 5548 5546 5543 5541 5538 5537 5535 5533 5531 5530 5529 5529 5530 5530 5529 5528 5528 5529 5531 5531 5531 5532 5533 5533 5535 5537 5538 5540 5541 5543
5574 5571 5568 5566 5563 5559 5556 5552 5549 5546 5543 5540 5537 5534 5531 5528 5526 5523 5521 5519 5517 5515 5514 5513 5513 5514 5514 5514 5512 5513 5513 5515 5517 5518 5516 5518 5518 5520 5522 5524 5525 5526 5528
5561 5558 5555 5552 5549 5547 5543 5540 5536 5532 5529 5526 5522 5519 5516 5514 5511 5509 5507 5505 5503 5501 5499 5498 5498 5498 5499 5499 5498 5498 5498 5499 5502 5502 5501 5504 5505 5506 5508 5509 5511 5512 5514
5547 5545 5542 5539 5537 5534 5530 5526 5522 5519 5515 5512 5508 5504 5501 5499 5496 5494 5492 5490 5488 5487 5485 5483 5483 5484 5484 5484 5484 5484 5485 5486 5488 5489 5488 5491 5493 5494 5496 5497 5498 5500 5502
5535 5532 5529 5527 5524 5521 5517 5513 5509 5505 5501 5498 5494 5490 5487 5484 5482 5479 5477 5475 5474 5473 5471 5470 5470 5470 5471 5471 5471 5471 5472 5473 5476 5478 5478 5479 5482 5483 5485 5487 5488 5489 5491
5522 5519 5517 5514 5511 5508 5504 5500 5496 5492 5488 5484 5481 5476 5473 5470 5467 5465 5462 5461 5460 5460 5458 5458 5458 5458 5459 5460 5460 5460 5461 5462 5464 5467 5469 5469 5471 5472 5475 5477 5478 5479 5481